Location: Aufkirchen
(47.9603°N, 11.3653°E)
Time: 14:39:52
(UTC+01:00)

Transit 2A Rocket - Pass Details

Date: 10 December 2020
Orbit: 592 x 910 km, 66.7° (Epoch: 21 January)

Event Time Altitude Azimuth Distance (km) Brightness Sun altitude
Rises 08:45:41 0° 319° (NW) 3,085 7.4 5.9°
Reaches altitude 10° 08:48:16 10° 310° (NW) 2,112 6.7 6.2°
Maximum altitude 08:52:30 33° 247° (WSW) 1,069 5.7 6.7°
Drops below altitude 10° 08:56:28 10° 182° (S) 1,966 7.9 7.2°
Sets 08:58:48 0° 173° (S) 2,841 8.9 7.4°
